Location: Hilton Head Island
(32.2163°N, 80.7526°W)
Time: 10:37:57
(UTC-04:00)

Explorer 11/Cluster Stage 4 - Pass Details

Date: 27 February 2026
Orbit: 463 x 1175 km, 28.8° (Epoch: 13 March)

Event Time Altitude Azimuth Distance (km) Brightness Sun altitude
Rises 05:51:25 0° 197° (SSW) 4,035 10.1 -13.7°
Reaches altitude 10° 05:56:46 10° 167° (SSE) 3,051 9.8 -12.6°
Maximum altitude 05:59:08 12° 149° (SSE) 2,899 9.9 -12.1°
Drops below altitude 10° 06:01:27 10° 131° (SE) 2,980 10.4 -11.6°
Sets 06:06:27 0° 101° (E) 3,808 12.2 -10.5°
